Vertical_Velocity
1 0 -0 1 1 -0 -0 -0 -1 -1 -0 4 -1 -1 3 -2 0 -3 1 -1 -2 1 3 -5 -0 0 -4 -3 -3 1 4 4 -1 1 -2 1 3 5 5 5 -0 4 5 -1 0 -3 -6
-1 1 1 1 1 2 -0 2 -2 -2 -1 5 -3 -2 1 -3 -1 -3 3 -2 -2 1 1 -1 0 -2 -0 -0 0 -1 3 0 2 0 1 4 2 9 2 -1 4 1 1 0 10 3 4
-0 2 -1 1 -1 -2 1 0 -2 -1 1 2 -3 -1 2 -3 -0 -3 -1 2 -2 2 1 1 0 -1 2 -1 1 3 2 -6 5 -3 -3 -4 -7 1 6 6 5 6 -4 -1 3 -3 -1
-1 1 2 1 2 -2 1 -0 -4 -1 -3 4 -2 1 1 1 -2 -2 -1 2 -2 1 0 -1 -3 1 2 2 5 2 -5 -1 4 -1 4 9 12 3 1 2 6 -2 -2 3 2 -0 0
2 -1 1 -1 1 -0 2 -1 -5 1 -3 2 -1 -0 1 3 -4 -3 -0 -1 1 0 -1 -2 -2 0 4 0 3 -1 -8 3 2 1 5 0 3 4 1 2 1 2 -1 -2 2 1 1
4 3 5 3 1 -1 -1 0 -5 -2 1 -1 1 2 -2 2 -3 -2 4 -4 -1 -1 -2 -3 -2 0 2 -1 1 3 -3 0 4 1 0 8 -1 -1 -2 -8 0 -5 5 2 0 1 2
1 4 2 2 2 1 1 0 -0 2 0 -2 1 2 -4 2 -0 0 5 -3 -2 -2 -3 -2 -2 -1 1 2 -3 -3 3 -1 0 3 -0 -3 8 10 4 3 -9 -0 3 3 2 1 0
1 -0 6 3 3 1 -1 1 -4 0 1 -3 3 -1 2 1 -5 4 -0 0 -4 -3 -2 -1 -1 -1 -1 4 1 -0 4 2 3 3 2 5 -3 9 0 -1 -2 1 2 2 -0 -1 -0
-1 -0 1 7 3 3 -0 0 -4 -1 -2 -1 5 -1 2 -0 -4 1 1 0 -4 -2 -1 -1 -2 -1 -1 2 0 0 4 3 1 5 4 19 1 -6 -5 3 2 2 4 3 4 4 4
0 1 -3 4 2 3 2 1 -6 1 1 -3 2 4 -7 4 -3 2 -1 0 -3 -2 0 -1 -2 -2 3 1 -3 0 3 -0 3 1 0 0 4 0 1 4 3 -0 -1 -1 3 0 6
-0 0 -5 4 1 -1 0 2 -4 0 -0 -2 1 -2 1 2 1 -3 3 -2 0 -1 1 -2 -2 0 1 -2 2 -2 4 5 2 2 2 -0 -1 3 -1 -3 -0 -5 -0 -3 -2 1 -1
4 -1 1 -2 3 -0 -8 6 -7 5 -2 2 -8 5 -2 6 -1 3 -1 -2 -0 -1 -1 -2 -2 -2 -1 0 1 -1 -6 -2 4 2 5 1 3 -0 2 0 1 -2 -0 0 4 3 -4
3 -1 6 -4 0 7 2 -7 0 3 1 3 -1 4 -4 -1 -1 6 -3 -4 -5 -3 2 -2 -1 0 0 -0 -0 -2 -2 -4 -4 -4 -5 -3 -3 0 2 0 -2 -2 1 -3 -1 -3 4
11 9 1 -7 -1 0 5 -1 2 -1 3 5 -5 10 -3 -3 -1 1 -2 -2 -6 1 -2 0 -3 0 -1 0 -1 1 2 2 2 3 -4 1 -2 3 4 0 0 0 2 2 -2 -2 7
-1 14 5 -2 -5 -2 2 -1 -0 0 3 2 -5 7 4 1 -1 -3 -5 -4 -3 -1 -2 -2 -1 0 -0 0 0 -0 1 1 1 3 1 2 -6 0 -0 1 0 -1 -1 3 3 3 1
5 7 16 3 -2 2 -2 0 -0 3 2 6 6 5 2 -1 -1 -4 -4 1 -6 0 -2 -2 -0 2 2 1 -0 -1 -1 1 0 1 1 2 0 -0 -0 -1 -1 -2 1 -1 0 -3 -0
-7 1 11 11 6 3 -2 0 1 8 7 0 -3 -2 -1 -3 -1 -6 -1 2 -4 0 -1 -0 1 1 2 0 -1 0 1 3 1 0 1 2 0 0 -0 -0 -1 0 1 0 -0 -0 1
8 -1 2 10 -4 19 5 -2 4 5 -0 4 -7 -1 3 0 -5 -0 -2 -3 -2 -1 -1 -0 -2 -2 -0 -1 1 0 -1 -1 1 1 0 1 -0 0 0 -1 -2 -1 -1 1 -1 -0 1
6 17 9 9 -1 6 7 6 0 -6 8 18 8 5 2 -1 -6 -2 -0 -0 -2 -1 -2 -1 0 1 1 0 -1 -1 -1 -1 -1 -1 -1 2 0 -1 -2 -1 -0 0 0 -0 -1 -2 -0
9 17 16 6 7 2 12 2 4 7 11 1 2 -10 -5 -4 -1 -0 -1 0 -2 -1 -0 2 1 -1 1 -0 -1 -2 -2 -1 0 0 -0 -1 1 0 1 -2 -3 -1 -1 -2 -2 -1 -1
3 10 20 12 25 1 -3 6 10 10 2 -2 0 -1 15 -10 -8 -1 -2 2 -0 -1 1 -1 0 2 -1 -1 0 -0 -1 -1 0 1 -0 -2 -1 -1 -1 0 -0 1 -1 -2 0 -1 -1
3 3 10 15 10 -4 -10 3 23 5 -6 -0 1 -9 -2 15 -1 2 -2 -4 1 -0 -1 1 1 -1 0 -0 1 -0 -1 -0 1 0 -1 0 -0 -1 -1 -1 -0 0 -1 -1 3 2 2
-2 3 11 12 -4 3 -2 3 2 -12 5 14 11 11 6 8 2 -4 2 2 3 -1 -0 0 1 0 -0 0 1 1 0 -1 0 1 -0 -1 1 -0 0 -1 -3 -5 5 1 2 2 1
-8 8 17 9 13 8 -8 -8 -6 8 13 22 9 11 6 -1 -0 11 -1 0 3 0 0 2 -0 0 1 1 2 3 0 0 1 1 -0 -0 -1 -2 1 -1 -9 6 3 2 -1 1 -1
-7 8 0 17 13 8 -1 -3 4 10 3 3 4 1 2 3 7 -4 -5 2 -0 -1 -3 1 0 -1 1 0 2 2 1 0 1 0 1 1 0 -1 -5 -1 1 3 3 0 1 12 -1
24 -0 11 1 4 1 -0 2 4 3 2 4 5 6 3 3 2 4 0 6 -1 -0 -2 -1 -2 0 -0 1 2 3 2 1 1 1 0 -0 -1 -1 2 -4 -5 3 2 -1 -3 -1 9
7 10 13 8 2 3 5 4 2 2 3 1 4 2 3 3 -2 -2 -0 9 4 -1 1 0 1 -1 -1 1 1 1 0 -1 1 0 -0 -1 -1 -0 -2 -4 -0 -1 -2 -1 -1 -5 -1
1 14 5 4 5 3 3 3 2 1 -0 -3 4 -1 0 0 1 1 -2 2 0 -4 1 5 -1 1 -0 -1 -1 1 0 -1 0 -0 -0 -2 -3 0 -3 -1 -3 1 -3 3 0 0 -1
11 7 7 4 3 1 0 -1 -2 -1 -0 2 0 1 1 -5 4 2 4 2 -2 -7 4 -1 1 -3 -3 -2 2 -3 -0 1 -0 2 -4 -0 -3 1 1 0 -4 -4 -2 -1 0 3 -2
Height
5778 5782 5785 5787 5789 5792 5792 5793 5794 5795 5794 5792 5791 5790 5787 5786 5783 5777 5775 5772 5770 5769 5767 5767 5767 5766 5765 5763 5762 5762 5762 5763 5764 5766 5769 5771 5775 5779 5783 5787 5792 5795 5797 5800 5800 5801 5802
5768 5771 5774 5777 5780 5782 5784 5786 5788 5788 5787 5786 5785 5784 5781 5781 5778 5772 5771 5769 5767 5765 5764 5764 5764 5765 5763 5763 5761 5761 5761 5762 5762 5765 5767 5769 5773 5778 5782 5786 5790 5793 5797 5798 5799 5802 5803
5757 5761 5765 5768 5771 5773 5775 5778 5780 5781 5780 5780 5779 5778 5776 5776 5772 5768 5767 5764 5762 5761 5760 5761 5762 5763 5762 5762 5761 5761 5761 5762 5763 5766 5767 5770 5775 5779 5783 5786 5789 5793 5796 5797 5799 5801 5803
5745 5749 5754 5758 5761 5765 5767 5770 5772 5774 5773 5773 5773 5772 5771 5771 5766 5764 5762 5760 5758 5756 5758 5759 5760 5761 5761 5760 5761 5761 5761 5763 5765 5768 5771 5773 5777 5780 5783 5787 5790 5793 5796 5798 5800 5801 5802
5733 5738 5743 5747 5752 5755 5759 5761 5764 5766 5766 5766 5767 5767 5766 5765 5761 5760 5758 5756 5754 5754 5756 5757 5758 5758 5759 5758 5760 5762 5762 5765 5768 5770 5771 5774 5778 5781 5784 5787 5791 5793 5794 5797 5799 5800 5801
5720 5726 5730 5736 5740 5744 5748 5754 5757 5759 5759 5759 5760 5760 5761 5760 5756 5756 5754 5752 5752 5752 5754 5755 5756 5758 5757 5757 5758 5761 5764 5766 5768 5770 5772 5776 5777 5780 5785 5788 5792 5792 5796 5797 5798 5800 5801
5705 5712 5719 5724 5730 5734 5739 5744 5749 5751 5752 5753 5753 5754 5755 5754 5752 5751 5749 5749 5751 5751 5751 5753 5754 5754 5753 5755 5758 5761 5764 5767 5769 5771 5775 5777 5781 5784 5785 5788 5791 5794 5797 5798 5799 5800 5802
5687 5696 5703 5710 5717 5724 5728 5734 5739 5744 5745 5747 5747 5748 5750 5748 5748 5747 5745 5746 5747 5749 5750 5750 5750 5751 5752 5754 5757 5759 5764 5768 5771 5772 5776 5779 5780 5785 5786 5789 5791 5793 5795 5797 5800 5801 5803
5668 5677 5687 5695 5702 5711 5718 5723 5730 5734 5737 5739 5741 5743 5744 5744 5743 5743 5741 5744 5744 5745 5747 5747 5747 5748 5750 5753 5755 5757 5763 5766 5770 5774 5775 5779 5782 5784 5786 5789 5791 5793 5795 5797 5799 5800 5802
5648 5658 5668 5679 5689 5697 5706 5712 5720 5725 5730 5731 5734 5737 5739 5739 5740 5738 5739 5741 5742 5743 5744 5745 5746 5747 5749 5751 5754 5756 5761 5765 5768 5774 5776 5779 5782 5784 5786 5788 5790 5792 5794 5795 5798 5799 5802
5628 5639 5650 5662 5673 5683 5693 5701 5709 5715 5721 5724 5728 5731 5733 5734 5734 5733 5737 5737 5739 5740 5741 5743 5744 5745 5747 5750 5754 5756 5759 5764 5766 5771 5777 5780 5781 5783 5785 5787 5789 5790 5792 5794 5796 5798 5799
5606 5620 5631 5644 5659 5670 5680 5689 5697 5704 5712 5716 5720 5725 5728 5728 5728 5730 5733 5734 5736 5738 5738 5741 5742 5745 5747 5750 5752 5756 5759 5764 5767 5771 5774 5778 5780 5781 5783 5784 5786 5788 5791 5793 5794 5795 5795
5586 5601 5614 5628 5642 5656 5666 5678 5686 5693 5701 5707 5713 5718 5722 5721 5724 5726 5729 5731 5734 5735 5738 5741 5742 5745 5747 5749 5752 5755 5759 5763 5766 5770 5773 5776 5778 5779 5781 5781 5783 5786 5789 5790 5791 5790 5792
5562 5578 5595 5612 5627 5640 5653 5665 5675 5682 5691 5699 5705 5709 5715 5716 5718 5723 5725 5729 5732 5735 5736 5739 5741 5744 5746 5748 5752 5755 5758 5761 5764 5768 5771 5774 5776 5776 5778 5779 5781 5783 5785 5787 5786 5787 5788
5531 5554 5570 5591 5610 5625 5639 5650 5662 5671 5680 5690 5698 5702 5708 5711 5714 5719 5723 5726 5731 5733 5736 5739 5741 5743 5746 5749 5752 5754 5757 5760 5762 5765 5769 5770 5771 5773 5775 5776 5778 5779 5781 5783 5782 5782 5782
5495 5520 5544 5565 5588 5607 5623 5636 5648 5660 5670 5680 5690 5695 5701 5706 5710 5715 5719 5724 5728 5732 5736 5738 5741 5743 5746 5749 5752 5754 5756 5759 5761 5763 5765 5768 5769 5770 5771 5773 5774 5776 5778 5779 5779 5778 5778
5457 5488 5518 5541 5565 5586 5605 5620 5634 5648 5659 5669 5680 5685 5693 5699 5704 5710 5715 5722 5726 5731 5734 5737 5740 5743 5746 5748 5750 5753 5755 5758 5759 5761 5762 5764 5766 5768 5768 5770 5771 5772 5773 5775 5775 5776 5775
5420 5454 5490 5521 5545 5566 5585 5605 5620 5635 5646 5658 5669 5677 5685 5692 5698 5706 5711 5718 5724 5728 5732 5736 5739 5741 5744 5747 5748 5750 5752 5754 5756 5757 5759 5760 5761 5763 5765 5766 5767 5769 5770 5771 5772 5774 5773
5400 5423 5460 5496 5526 5551 5566 5586 5606 5622 5639 5650 5659 5669 5678 5685 5692 5701 5706 5714 5720 5726 5730 5734 5737 5740 5742 5743 5745 5746 5748 5750 5751 5753 5755 5756 5757 5760 5761 5764 5765 5766 5767 5769 5770 5771 5771
5388 5409 5435 5475 5508 5536 5554 5571 5593 5612 5629 5639 5652 5661 5671 5678 5689 5698 5703 5710 5717 5723 5727 5731 5735 5737 5738 5739 5740 5742 5744 5745 5747 5749 5750 5752 5754 5756 5759 5760 5761 5763 5764 5765 5766 5767 5767
5380 5399 5422 5456 5493 5522 5541 5561 5582 5601 5618 5630 5641 5653 5664 5669 5681 5691 5699 5707 5713 5719 5725 5729 5733 5734 5735 5736 5737 5738 5740 5742 5744 5745 5747 5749 5751 5753 5755 5756 5758 5760 5761 5762 5762 5763 5762
5374 5395 5421 5454 5483 5511 5533 5553 5572 5589 5607 5622 5633 5644 5656 5670 5679 5687 5692 5701 5709 5716 5722 5727 5730 5731 5732 5733 5734 5735 5736 5738 5740 5742 5743 5746 5749 5750 5751 5753 5755 5756 5757 5759 5758 5758 5757
5374 5401 5427 5456 5478 5503 5526 5550 5567 5583 5604 5616 5627 5638 5653 5664 5672 5681 5689 5698 5706 5713 5719 5723 5726 5728 5730 5731 5731 5732 5733 5734 5736 5737 5740 5742 5745 5747 5749 5750 5750 5751 5755 5754 5753 5752 5750
5385 5413 5436 5457 5478 5502 5525 5548 5566 5585 5598 5613 5622 5635 5646 5658 5668 5677 5686 5694 5702 5709 5715 5720 5723 5726 5728 5729 5729 5730 5731 5731 5733 5734 5737 5740 5742 5743 5745 5745 5744 5748 5749 5747 5746 5745 5742
5396 5422 5440 5461 5484 5508 5529 5550 5567 5581 5593 5607 5620 5631 5641 5652 5662 5673 5681 5689 5696 5704 5709 5715 5719 5722 5725 5726 5727 5728 5729 5730 5731 5732 5734 5736 5737 5738 5738 5739 5740 5740 5740 5740 5738 5738 5733
5419 5435 5453 5472 5494 5514 5535 5552 5568 5580 5593 5605 5617 5627 5638 5649 5660 5669 5676 5685 5693 5700 5707 5711 5715 5719 5721 5723 5725 5726 5727 5728 5729 5730 5730 5731 5732 5733 5733 5732 5732 5733 5732 5731 5729 5726 5723
5428 5447 5465 5486 5505 5522 5540 5555 5569 5581 5593 5604 5614 5624 5634 5645 5656 5664 5672 5680 5689 5696 5703 5708 5711 5714 5717 5720 5721 5723 5724 5725 5726 5726 5727 5727 5727 5727 5726 5725 5725 5724 5723 5721 5719 5718 5711
5448 5465 5481 5500 5515 5530 5546 5559 5572 5582 5593 5602 5613 5620 5630 5642 5651 5659 5668 5677 5685 5692 5698 5704 5707 5710 5713 5715 5717 5718 5719 5721 5721 5722 5722 5722 5721 5721 5720 5717 5715 5715 5712 5710 5706 5702 5699
5465 5481 5493 5509 5523 5538 5550 5562 5573 5583 5592 5602 5611 5619 5628 5640 5648 5657 5665 5673 5680 5687 5694 5697 5701 5704 5707 5709 5712 5713 5714 5715 5715 5716 5715 5715 5714 5713 5712 5710 5706 5702 5700 5697 5694 5691 5687